{"data":{"norad_id":60132,"intl_designator":"2024-118V","name":"STARLINK-31792","alt_names":[],"object_type":"PAYLOAD","status":"ACTIVE","operator":null,"country":"US","launch_date":"2024-06-24","launch_site_code":"AFWTR","launch_vehicle":null,"mission":null,"orbit_class":"UNKNOWN","rcs_meters":null,"size_class":null,"mass_kg":null,"dimensions":null,"purposes":["comms"],"wikipedia_slug":null,"has_3d_model":false,"image_url":null,"decayed_at":null,"tle_current":{"epoch":"2026-05-25T01:42:09.762912Z","epoch_age_seconds":62129,"freshness":"FRESH","line1":"1 60132U 24118V   26145.07094633  .00002099  00000+0  83029-4 0  9993","line2":"2 60132  53.1625  29.5500 0001641  83.3959 276.7229 15.30182581107429","mean_motion":15.30182581,"eccentricity":0.0001641,"inclination_deg":53.1625,"raan_deg":29.55,"arg_perigee_deg":83.3959,"mean_anomaly_deg":276.7229,"bstar":8.3029e-5,"rev_number":10742,"period_min":94.106416964892,"perigee_km":474.1424362974,"apogee_km":476.39172351642,"semimajor_km":6853.4040799069,"source":"CELESTRAK","updated_at":"2026-05-25T13:38:19.169796Z"}}}